Time,TemperatureF,DewpointF,PressureIn,WindDirection,WindDirectionDegrees,WindSpeedMPH,WindSpeedGustMPH,Humidity,HourlyPrecipIn,Conditions,Clouds,dailyrainin,SoftwareType,DateUTC
2013-04-20 00:03:00,52.0,-99.9,-100.00,North,-999,-999.0,-999.0,-999,0.12,,,0.23,,2013-04-20 04:03:00,
2013-04-20 00:13:00,52.0,-99.9,-100.00,North,-999,-999.0,-999.0,-999,0.12,,,0.23,,2013-04-20 04:13:00,
2013-04-20 00:23:00,49.0,-99.9,-100.00,North,-999,-999.0,-999.0,-999,0.02,,,0.24,,2013-04-20 04:23:00,
2013-04-20 00:30:00,45.0,-99.9,-100.00,North,-999,-999.0,-999.0,-999,0.03,,,0.26,,2013-04-20 04:30:00,
2013-04-20 00:33:00,49.0,-99.9,-100.00,North,-999,-999.0,-999.0,-999,0.02,,,0.24,,2013-04-20 04:33:00,
2013-04-20 00:43:00,49.0,-99.9,-100.00,North,-999,-999.0,-999.0,-999,0.02,,,0.24,,2013-04-20 04:43:00,
2013-04-20 00:53:00,45.0,-99.9,-100.00,North,-999,-999.0,-999.0,-999,0.03,,,0.26,,2013-04-20 04:53:00,
2013-04-20 01:02:00,45.0,-99.9,-100.00,North,-999,-999.0,-999.0,-999,0.03,,,0.26,,2013-04-20 05:02:00,
2013-04-20 01:12:00,45.0,-99.9,-100.00,North,-999,-999.0,-999.0,-999,0.03,,,0.26,,2013-04-20 05:12:00,
2013-04-20 01:22:00,45.0,-99.9,-100.00,North,-999,-999.0,-999.0,-999,0.03,,,0.26,,2013-04-20 05:22:00,
2013-04-20 01:30:00,44.0,-99.9,-100.00,North,-999,-999.0,-999.0,-999,0.00,,,0.26,,2013-04-20 05:30:00,
2013-04-20 01:52:00,44.0,-99.9,-100.00,North,-999,-999.0,-999.0,-999,0.00,,,0.26,,2013-04-20 05:52:00,
2013-04-20 02:02:00,44.0,-99.9,-100.00,North,-999,-999.0,-999.0,-999,0.00,,,0.26,,2013-04-20 06:02:00,
2013-04-20 02:12:00,44.0,-99.9,-100.00,North,-999,-999.0,-999.0,-999,0.00,,,0.26,,2013-04-20 06:12:00,
2013-04-20 02:22:00,44.0,-99.9,-100.00,North,-999,-999.0,-999.0,-999,0.00,,,0.26,,2013-04-20 06:22:00,
2013-04-20 02:30:00,43.0,-99.9,-100.00,North,-999,-999.0,-999.0,-999,0.01,,,0.27,,2013-04-20 06:30:00,
2013-04-20 02:52:00,43.0,-99.9,-100.00,North,-999,-999.0,-999.0,-999,0.01,,,0.27,,2013-04-20 06:52:00,
2013-04-20 03:02:00,43.0,-99.9,-100.00,North,-999,-999.0,-999.0,-999,0.01,,,0.27,,2013-04-20 07:02:00,
2013-04-20 03:11:00,43.0,-99.9,-100.00,North,-999,-999.0,-999.0,-999,0.01,,,0.27,,2013-04-20 07:11:00,
2013-04-20 03:22:00,43.0,-99.9,-100.00,North,-999,-999.0,-999.0,-999,0.01,,,0.27,,2013-04-20 07:22:00,
2013-04-20 03:30:00,41.0,-99.9,-100.00,North,-999,-999.0,-999.0,-999,0.01,,,0.28,,2013-04-20 07:30:00,
2013-04-20 03:52:00,41.0,-99.9,-100.00,North,-999,-999.0,-999.0,-999,0.01,,,0.28,,2013-04-20 07:52:00,
2013-04-20 04:02:00,41.0,-99.9,-100.00,North,-999,-999.0,-999.0,-999,0.01,,,0.28,,2013-04-20 08:02:00,
2013-04-20 04:11:00,41.0,-99.9,-100.00,North,-999,-999.0,-999.0,-999,0.01,,,0.28,,2013-04-20 08:11:00,
2013-04-20 04:22:00,41.0,-99.9,-100.00,North,-999,-999.0,-999.0,-999,0.01,,,0.28,,2013-04-20 08:22:00,
2013-04-20 04:30:00,39.0,-99.9,-100.00,North,-999,-999.0,-999.0,-999,0.04,,,0.32,,2013-04-20 08:30:00,
2013-04-20 04:52:00,39.0,-99.9,-100.00,North,-999,-999.0,-999.0,-999,0.04,,,0.32,,2013-04-20 08:52:00,
2013-04-20 05:02:00,39.0,-99.9,-100.00,North,-999,-999.0,-999.0,-999,0.04,,,0.32,,2013-04-20 09:02:00,
2013-04-20 05:12:00,39.0,-99.9,-100.00,North,-999,-999.0,-999.0,-999,0.04,,,0.32,,2013-04-20 09:12:00,
2013-04-20 05:22:00,39.0,-99.9,-100.00,North,-999,-999.0,-999.0,-999,0.04,,,0.32,,2013-04-20 09:22:00,
2013-04-20 05:30:00,38.0,-99.9,-100.00,North,-999,-999.0,-999.0,-999,0.00,,,0.32,,2013-04-20 09:30:00,
2013-04-20 05:53:00,38.0,-99.9,-100.00,North,-999,-999.0,-999.0,-999,0.00,,,0.32,,2013-04-20 09:53:00,
2013-04-20 06:03:00,38.0,-99.9,-100.00,North,-999,-999.0,-999.0,-999,0.00,,,0.32,,2013-04-20 10:03:00,
2013-04-20 06:13:00,38.0,-99.9,-100.00,North,-999,-999.0,-999.0,-999,0.00,,,0.32,,2013-04-20 10:13:00,
2013-04-20 06:23:00,38.0,-99.9,-100.00,North,-999,-999.0,-999.0,-999,0.00,,,0.32,,2013-04-20 10:23:00,
2013-04-20 06:30:00,38.0,-99.9,-100.00,North,-999,-999.0,-999.0,-999,0.00,,,0.32,,2013-04-20 10:30:00,
2013-04-20 06:53:00,38.0,-99.9,-100.00,North,-999,-999.0,-999.0,-999,0.00,,,0.32,,2013-04-20 10:53:00,
2013-04-20 07:03:00,38.0,-99.9,-100.00,North,-999,-999.0,-999.0,-999,0.00,,,0.32,,2013-04-20 11:03:00,
2013-04-20 07:12:00,38.0,-99.9,-100.00,North,-999,-999.0,-999.0,-999,0.00,,,0.32,,2013-04-20 11:12:00,
2013-04-20 07:23:00,38.0,-99.9,-100.00,North,-999,-999.0,-999.0,-999,0.00,,,0.32,,2013-04-20 11:23:00,
2013-04-20 07:53:00,39.0,-99.9,-100.00,North,-999,-999.0,-999.0,-999,0.00,,,0.32,,2013-04-20 11:53:00,
2013-04-20 08:02:00,39.0,-99.9,-100.00,North,-999,-999.0,-999.0,-999,0.00,,,0.32,,2013-04-20 12:02:00,
2013-04-20 08:11:00,39.0,-99.9,-100.00,North,-999,-999.0,-999.0,-999,0.00,,,0.32,,2013-04-20 12:11:00,
2013-04-20 08:23:00,39.0,-99.9,-100.00,North,-999,-999.0,-999.0,-999,0.00,,,0.32,,2013-04-20 12:23:00,
2013-04-20 08:30:00,40.0,-99.9,-100.00,North,-999,-999.0,-999.0,-999,0.00,,,0.32,,2013-04-20 12:30:00,
2013-04-20 08:32:00,39.0,-99.9,-100.00,North,-999,-999.0,-999.0,-999,0.00,,,0.32,,2013-04-20 12:32:00,
2013-04-20 08:42:00,39.0,-99.9,-100.00,North,-999,-999.0,-999.0,-999,0.00,,,0.32,,2013-04-20 12:42:00,
2013-04-20 08:52:00,40.0,-99.9,-100.00,North,-999,-999.0,-999.0,-999,0.00,,,0.32,,2013-04-20 12:52:00,
2013-04-20 09:02:00,40.0,-99.9,-100.00,North,-999,-999.0,-999.0,-999,0.00,,,0.32,,2013-04-20 13:02:00,
2013-04-20 09:12:00,40.0,-99.9,-100.00,North,-999,-999.0,-999.0,-999,0.00,,,0.32,,2013-04-20 13:12:00,
2013-04-20 09:22:00,40.0,-99.9,-100.00,North,-999,-999.0,-999.0,-999,0.00,,,0.32,,2013-04-20 13:22:00,
2013-04-20 09:30:00,41.0,-99.9,-100.00,North,-999,-999.0,-999.0,-999,0.00,,,0.32,,2013-04-20 13:30:00,
2013-04-20 09:52:00,41.0,-99.9,-100.00,North,-999,-999.0,-999.0,-999,0.00,,,0.32,,2013-04-20 13:52:00,
2013-04-20 10:02:00,41.0,-99.9,-100.00,North,-999,-999.0,-999.0,-999,0.00,,,0.32,,2013-04-20 14:02:00,
2013-04-20 10:12:00,41.0,-99.9,-100.00,North,-999,-999.0,-999.0,-999,0.00,,,0.32,,2013-04-20 14:12:00,
2013-04-20 10:22:00,41.0,-99.9,-100.00,North,-999,-999.0,-999.0,-999,0.00,,,0.32,,2013-04-20 14:22:00,
2013-04-20 10:30:00,41.0,-99.9,-100.00,North,-999,-999.0,-999.0,-999,0.00,,,0.32,,2013-04-20 14:30:00,
2013-04-20 10:52:00,41.0,-99.9,-100.00,North,-999,-999.0,-999.0,-999,0.00,,,0.32,,2013-04-20 14:52:00,
2013-04-20 11:02:00,41.0,-99.9,-100.00,North,-999,-999.0,-999.0,-999,0.00,,,0.32,,2013-04-20 15:02:00,
2013-04-20 11:12:00,41.0,-99.9,-100.00,North,-999,-999.0,-999.0,-999,0.00,,,0.32,,2013-04-20 15:12:00,
2013-04-20 11:22:00,41.0,-99.9,-100.00,North,-999,-999.0,-999.0,-999,0.00,,,0.32,,2013-04-20 15:22:00,
2013-04-20 11:53:00,41.0,-99.9,-100.00,North,-999,-999.0,-999.0,-999,0.00,,,0.32,,2013-04-20 15:53:00,
2013-04-20 12:03:00,41.0,-99.9,-100.00,North,-999,-999.0,-999.0,-999,0.00,,,0.32,,2013-04-20 16:03:00,
2013-04-20 12:12:00,41.0,-99.9,-100.00,North,-999,-999.0,-999.0,-999,0.00,,,0.32,,2013-04-20 16:12:00,
2013-04-20 12:23:00,43.0,-99.9,-100.00,North,-999,-999.0,-999.0,-999,0.00,,,0.32,,2013-04-20 16:23:00,
2013-04-20 12:30:00,43.0,-99.9,-100.00,North,-999,-999.0,-999.0,-999,0.00,,,0.32,,2013-04-20 16:30:00,
2013-04-20 12:33:00,43.0,-99.9,-100.00,North,-999,-999.0,-999.0,-999,0.00,,,0.32,,2013-04-20 16:33:00,
2013-04-20 12:42:00,43.0,-99.9,-100.00,North,-999,-999.0,-999.0,-999,0.00,,,0.32,,2013-04-20 16:42:00,
2013-04-20 12:53:00,43.0,-99.9,-100.00,North,-999,-999.0,-999.0,-999,0.00,,,0.32,,2013-04-20 16:53:00,
2013-04-20 13:03:00,43.0,-99.9,-100.00,North,-999,-999.0,-999.0,-999,0.00,,,0.32,,2013-04-20 17:03:00,
2013-04-20 13:12:00,43.0,-99.9,-100.00,North,-999,-999.0,-999.0,-999,0.00,,,0.32,,2013-04-20 17:12:00,
2013-04-20 13:23:00,43.0,-99.9,-100.00,North,-999,-999.0,-999.0,-999,0.00,,,0.32,,2013-04-20 17:23:00,
2013-04-20 13:30:00,43.0,-99.9,-100.00,North,-999,-999.0,-999.0,-999,0.00,,,0.32,,2013-04-20 17:30:00,
2013-04-20 13:52:00,43.0,-99.9,-100.00,North,-999,-999.0,-999.0,-999,0.00,,,0.32,,2013-04-20 17:52:00,
2013-04-20 14:02:00,43.0,-99.9,-100.00,North,-999,-999.0,-999.0,-999,0.00,,,0.32,,2013-04-20 18:02:00,
2013-04-20 14:13:00,43.0,-99.9,-100.00,North,-999,-999.0,-999.0,-999,0.00,,,0.32,,2013-04-20 18:13:00,
2013-04-20 14:22:00,43.0,-99.9,-100.00,North,-999,-999.0,-999.0,-999,0.00,,,0.32,,2013-04-20 18:22:00,
2013-04-20 14:30:00,45.0,-99.9,-100.00,North,-999,-999.0,-999.0,-999,0.00,,,0.32,,2013-04-20 18:30:00,
2013-04-20 14:53:00,45.0,-99.9,-100.00,North,-999,-999.0,-999.0,-999,0.00,,,0.32,,2013-04-20 18:53:00,
2013-04-20 15:02:00,45.0,-99.9,-100.00,North,-999,-999.0,-999.0,-999,0.00,,,0.32,,2013-04-20 19:02:00,
2013-04-20 15:12:00,45.0,-99.9,-100.00,North,-999,-999.0,-999.0,-999,0.00,,,0.32,,2013-04-20 19:12:00,
2013-04-20 15:22:00,45.0,-99.9,-100.00,North,-999,-999.0,-999.0,-999,0.00,,,0.32,,2013-04-20 19:22:00,
2013-04-20 15:52:00,46.0,-99.9,-100.00,North,-999,-999.0,-999.0,-999,0.10,,,0.42,,2013-04-20 19:52:00,
2013-04-20 16:02:00,46.0,-99.9,-100.00,North,-999,-999.0,-999.0,-999,0.10,,,0.42,,2013-04-20 20:02:00,
2013-04-20 16:12:00,46.0,-99.9,-100.00,North,-999,-999.0,-999.0,-999,0.10,,,0.42,,2013-04-20 20:12:00,
2013-04-20 16:22:00,45.0,-99.9,-100.00,North,-999,-999.0,-999.0,-999,0.17,,,0.51,,2013-04-20 20:22:00,
2013-04-20 16:30:00,45.0,-99.9,-100.00,North,-999,-999.0,-999.0,-999,0.11,,,0.53,,2013-04-20 20:30:00,
2013-04-20 16:32:00,45.0,-99.9,-100.00,North,-999,-999.0,-999.0,-999,0.17,,,0.51,,2013-04-20 20:32:00,
2013-04-20 16:42:00,45.0,-99.9,-100.00,North,-999,-999.0,-999.0,-999,0.17,,,0.51,,2013-04-20 20:42:00,
2013-04-20 16:52:00,45.0,-99.9,-100.00,North,-999,-999.0,-999.0,-999,0.11,,,0.53,,2013-04-20 20:52:00,
2013-04-20 17:02:00,45.0,-99.9,-100.00,North,-999,-999.0,-999.0,-999,0.11,,,0.53,,2013-04-20 21:02:00,
2013-04-20 17:12:00,45.0,-99.9,-100.00,North,-999,-999.0,-999.0,-999,0.11,,,0.53,,2013-04-20 21:12:00,
2013-04-20 17:22:00,45.0,-99.9,-100.00,North,-999,-999.0,-999.0,-999,0.11,,,0.53,,2013-04-20 21:22:00,
2013-04-20 17:30:00,45.0,-99.9,-100.00,North,-999,-999.0,-999.0,-999,0.07,,,0.60,,2013-04-20 21:30:00,
2013-04-20 17:53:00,45.0,-99.9,-100.00,North,-999,-999.0,-999.0,-999,0.07,,,0.60,,2013-04-20 21:53:00,
2013-04-20 18:03:00,45.0,-99.9,-100.00,North,-999,-999.0,-999.0,-999,0.07,,,0.60,,2013-04-20 22:03:00,
2013-04-20 18:13:00,45.0,-99.9,-100.00,North,-999,-999.0,-999.0,-999,0.07,,,0.60,,2013-04-20 22:13:00,
2013-04-20 18:23:00,45.0,-99.9,-100.00,North,-999,-999.0,-999.0,-999,0.07,,,0.60,,2013-04-20 22:23:00,
2013-04-20 18:30:00,43.0,-99.9,-100.00,North,-999,-999.0,-999.0,-999,0.21,,,0.81,,2013-04-20 22:30:00,
2013-04-20 18:53:00,43.0,-99.9,-100.00,North,-999,-999.0,-999.0,-999,0.21,,,0.81,,2013-04-20 22:53:00,
2013-04-20 19:02:00,43.0,-99.9,-100.00,North,-999,-999.0,-999.0,-999,0.21,,,0.81,,2013-04-20 23:02:00,
2013-04-20 19:12:00,43.0,-99.9,-100.00,North,-999,-999.0,-999.0,-999,0.21,,,0.81,,2013-04-20 23:12:00,
2013-04-20 19:22:00,43.0,-99.9,-100.00,North,-999,-999.0,-999.0,-999,0.21,,,0.81,,2013-04-20 23:22:00,
2013-04-20 19:53:00,42.0,-99.9,-100.00,North,-999,-999.0,-999.0,-999,0.00,,,0.81,,2013-04-20 23:53:00,
2013-04-20 20:02:00,42.0,-99.9,-100.00,North,-999,-999.0,-999.0,-999,0.00,,,0.81,,2013-04-21 00:02:00,
2013-04-20 20:12:00,42.0,-99.9,-100.00,North,-999,-999.0,-999.0,-999,0.00,,,0.81,,2013-04-21 00:12:00,
2013-04-20 20:22:00,40.0,-99.9,-100.00,North,-999,-999.0,-999.0,-999,0.00,,,0.81,,2013-04-21 00:22:00,
2013-04-20 20:30:00,39.0,-99.9,-100.00,North,-999,-999.0,-999.0,-999,0.00,,,0.81,,2013-04-21 00:30:00,
2013-04-20 20:32:00,40.0,-99.9,-100.00,North,-999,-999.0,-999.0,-999,0.00,,,0.81,,2013-04-21 00:32:00,
2013-04-20 20:42:00,40.0,-99.9,-100.00,North,-999,-999.0,-999.0,-999,0.00,,,0.81,,2013-04-21 00:42:00,
2013-04-20 20:52:00,39.0,-99.9,-100.00,North,-999,-999.0,-999.0,-999,0.00,,,0.81,,2013-04-21 00:52:00,
2013-04-20 21:01:00,39.0,-99.9,-100.00,North,-999,-999.0,-999.0,-999,0.00,,,0.81,,2013-04-21 01:01:00,
2013-04-20 21:12:00,39.0,-99.9,-100.00,North,-999,-999.0,-999.0,-999,0.00,,,0.81,,2013-04-21 01:12:00,
2013-04-20 21:22:00,39.0,-99.9,-100.00,North,-999,-999.0,-999.0,-999,0.00,,,0.81,,2013-04-21 01:22:00,
2013-04-20 21:30:00,36.0,-99.9,-100.00,North,-999,-999.0,-999.0,-999,0.00,,,0.80,,2013-04-21 01:30:00,
2013-04-20 21:52:00,36.0,-99.9,-100.00,North,-999,-999.0,-999.0,-999,0.00,,,0.80,,2013-04-21 01:52:00,
2013-04-20 22:02:00,36.0,-99.9,-100.00,North,-999,-999.0,-999.0,-999,0.00,,,0.80,,2013-04-21 02:02:00,
2013-04-20 22:11:00,36.0,-99.9,-100.00,North,-999,-999.0,-999.0,-999,0.00,,,0.80,,2013-04-21 02:11:00,
2013-04-20 22:22:00,36.0,-99.9,-100.00,North,-999,-999.0,-999.0,-999,0.00,,,0.80,,2013-04-21 02:22:00,
2013-04-20 22:30:00,34.0,-99.9,-100.00,North,-999,-999.0,-999.0,-999,0.00,,,0.70,,2013-04-21 02:30:00,
2013-04-20 22:52:00,34.0,-99.9,-100.00,North,-999,-999.0,-999.0,-999,0.00,,,0.70,,2013-04-21 02:52:00,
2013-04-20 23:02:00,34.0,-99.9,-100.00,North,-999,-999.0,-999.0,-999,0.00,,,0.70,,2013-04-21 03:02:00,
2013-04-20 23:11:00,34.0,-99.9,-100.00,North,-999,-999.0,-999.0,-999,0.00,,,0.70,,2013-04-21 03:11:00,
2013-04-20 23:22:00,34.0,-99.9,-100.00,North,-999,-999.0,-999.0,-999,0.00,,,0.70,,2013-04-21 03:22:00,
2013-04-20 23:53:00,33.0,-99.9,-100.00,North,-999,-999.0,-999.0,-999,0.00,,,0.58,,2013-04-21 03:53:00,